This is the latest recevied weather packets stored in our database for station/object N7WSS. If no packets are shown the sender has not sent any weather packets the latest 10 day(s).
| Time | Temp. | Humidity | Pressure | Rain* | Wind** | Luminosity | Snow |
|---|---|---|---|---|---|---|---|
| 1777770561 | 27.78° C | 26% | 1010.6 hPa | 0 mm | - | - | - |
| 1777770258 | 28.33° C | 25% | 1010.6 hPa | 0 mm | - | - | - |
| 1777769955 | 28.33° C | 25% | 1010.6 hPa | 0 mm | - | - | - |
| 1777769653 | 28.33° C | 25% | 1010.5 hPa | 0 mm | - | - | - |
| 1777769348 | 28.33° C | 25% | 1010.4 hPa | 0 mm | - | - | - |
| 1777769046 | 28.89° C | 24% | 1010.3 hPa | 0 mm | - | - | - |
| 1777768743 | 28.33° C | 25% | 1010.6 hPa | 0 mm | - | - | - |
| 1777768440 | 27.78° C | 25% | 1010.5 hPa | 0 mm | - | - | - |
| 1777768137 | 28.33° C | 25% | 1010.3 hPa | 0 mm | - | - | - |
| 1777767834 | 28.33° C | 25% | 1010.2 hPa | 0 mm | - | - | - |
| 1777767530 | 28.89° C | 24% | 1010.2 hPa | 0 mm | - | - | - |
| 1777767227 | 28.89° C | 24% | 1010.4 hPa | 0 mm | - | - | - |
| 1777766925 | 29.44° C | 24% | 1010.4 hPa | 0 mm | - | - | - |
| 1777766622 | 28.89° C | 24% | 1010.3 hPa | 0 mm | - | - | - |
| 1777766319 | 28.89° C | 25% | 1010.2 hPa | 0 mm | - | - | - |
| 1777766016 | 28.89° C | 24% | 1010.4 hPa | 0 mm | - | - | - |
| 1777765712 | 28.33° C | 25% | 1010.3 hPa | 0 mm | - | - | - |
| 1777765409 | 28.89° C | 24% | 1010.3 hPa | 0 mm | - | - | - |
| 1777765106 | 28.89° C | 24% | 1010.2 hPa | 0 mm | - | - | - |
| 1777764802 | 28.89° C | 24% | 1010.4 hPa | 0 mm | - | - | - |
| 1777764500 | 28.33° C | 24% | 1010.3 hPa | 0 mm | - | - | - |
| 1777764195 | 28.89° C | 24% | 1010.5 hPa | 0 mm | - | - | - |
| 1777763892 | 28.89° C | 24% | 1010.5 hPa | 0 mm | - | - | - |
| 1777763590 | 28.33° C | 25% | 1010.4 hPa | 0 mm | - | - | - |
| 1777763288 | 28.33° C | 24% | 1010.7 hPa | 0 mm | - | - | - |
* Rain latest hour (hover to see other rain measurements)
** Current wind speed in m/s (hover to see current wind gust speed)